TimeCET,TemperatureF,Dew PointF,Humidity,Sea Level PressureIn,VisibilityMPH,Wind Direction,Wind SpeedMPH,Gust SpeedMPH,PrecipitationIn,Events,Conditions,WindDirDegrees,DateUTC
12:20 AM,30.2,30.2,100,30.06,0.3,NNE,3.5,-,N/A,Fog,Light Freezing Fog,20,2012-11-24 23:20:00
12:50 AM,32.0,32.0,100,30.06,0.3,North,4.6,-,N/A,Fog,Light Freezing Fog,10,2012-11-24 23:50:00
1:00 AM,31,31,100,30.09,0,North,4.5,,,Fog,Fog,10,2012-11-25 00:00:00
1:20 AM,32.0,32.0,100,30.06,0.6,North,3.5,-,N/A,,Overcast,360,2012-11-25 00:20:00
1:50 AM,32.0,32.0,100,30.06,0.7,North,3.5,-,N/A,,Overcast,350,2012-11-25 00:50:00
2:20 AM,32.0,32.0,100,30.06,2.5,NNW,4.6,-,N/A,,Unknown,330,2012-11-25 01:20:00
2:50 AM,32.0,32.0,100,30.06,3.1,North,4.6,-,N/A,,Overcast,360,2012-11-25 01:50:00
3:20 AM,32.0,32.0,100,30.06,3.1,North,3.5,-,N/A,,Overcast,360,2012-11-25 02:20:00
3:50 AM,32.0,32.0,100,30.06,-9999.0,NNE,3.5,-,N/A,,Overcast,20,2012-11-25 02:50:00
4:20 AM,32.0,32.0,100,30.04,-9999.0,NW,3.5,-,N/A,Fog,Light Freezing Fog,320,2012-11-25 03:20:00
4:50 AM,32.0,32.0,100,30.04,0.2,NNW,3.5,-,N/A,Fog,Fog,330,2012-11-25 03:50:00
5:20 AM,32.0,32.0,100,30.04,0.2,North,5.8,-,N/A,Fog,Fog,350,2012-11-25 04:20:00
5:50 AM,32.0,32.0,100,30.04,0.2,NNW,5.8,-,N/A,Fog,Fog,340,2012-11-25 04:50:00
6:20 AM,32.0,32.0,100,30.01,0.2,NNW,3.5,-,N/A,Fog,Fog,340,2012-11-25 05:20:00
6:50 AM,32.0,32.0,100,30.01,0.2,NNE,4.6,-,N/A,Fog,Fog,20,2012-11-25 05:50:00
7:00 AM,33,33,97,30.04,0,NNE,4.5,,,Rain,Drizzle,20,2012-11-25 06:00:00
7:20 AM,32.0,32.0,100,30.01,-9999.0,NNE,4.6,-,N/A,Rain,Light Rain,20,2012-11-25 06:20:00
7:50 AM,33.8,33.8,100,30.01,1.7,NNE,5.8,-,N/A,,Mist,20,2012-11-25 06:50:00
8:20 AM,33.8,33.8,100,30.01,-9999.0,NNE,5.8,-,N/A,,Mist,20,2012-11-25 07:20:00
8:50 AM,33.8,33.8,100,30.01,-9999.0,NNE,5.8,-,N/A,,Mist,20,2012-11-25 07:50:00
9:20 AM,33.8,33.8,100,30.01,-9999.0,NNE,5.8,-,N/A,,Overcast,20,2012-11-25 08:20:00
9:50 AM,33.8,33.8,100,30.01,3.7,NNE,5.8,-,N/A,,Mostly Cloudy,20,2012-11-25 08:50:00
10:20 AM,35.6,35.6,100,29.98,5.6,NE,8.1,-,N/A,,Mostly Cloudy,50,2012-11-25 09:20:00
10:50 AM,35.6,35.6,100,29.98,6.2,ENE,8.1,-,N/A,,Mostly Cloudy,60,2012-11-25 09:50:00
11:20 AM,37.4,37.4,100,29.98,6.2,ENE,6.9,-,N/A,,Overcast,70,2012-11-25 10:20:00
11:50 AM,37.4,37.4,100,29.95,6.2,ENE,9.2,-,N/A,,Mostly Cloudy,60,2012-11-25 10:50:00
12:20 PM,37.4,37.4,100,29.92,6.2,ENE,9.2,-,N/A,,Mostly Cloudy,60,2012-11-25 11:20:00
12:50 PM,37.4,37.4,100,29.92,6.2,ENE,10.4,-,N/A,Rain,Light Rain,70,2012-11-25 11:50:00
1:00 PM,38,36,92,29.94,11,ENE,8.9,,,Rain,Light Rain,70,2012-11-25 12:00:00
1:20 PM,37.4,35.6,93,29.92,6.2,ENE,9.2,-,N/A,Rain,Light Rain,60,2012-11-25 12:20:00
1:50 PM,37.4,35.6,93,29.89,6.2,ENE,9.2,-,N/A,Rain,Light Rain,60,2012-11-25 12:50:00
2:50 PM,37.4,35.6,93,29.86,6.2,NE,10.4,-,N/A,,Mostly Cloudy,50,2012-11-25 13:50:00
3:20 PM,37.4,35.6,93,29.86,6.2,NE,9.2,-,N/A,,Mostly Cloudy,50,2012-11-25 14:20:00
3:50 PM,37.4,35.6,93,29.83,6.2,NE,10.4,-,N/A,,Mostly Cloudy,50,2012-11-25 14:50:00
4:20 PM,35.6,33.8,93,29.83,6.2,NE,11.5,-,N/A,,Mostly Cloudy,50,2012-11-25 15:20:00
4:50 PM,35.6,33.8,93,29.80,6.2,NE,12.7,-,N/A,,Mostly Cloudy,50,2012-11-25 15:50:00
5:20 PM,35.6,33.8,93,29.80,6.2,NE,11.5,-,N/A,,Mostly Cloudy,40,2012-11-25 16:20:00
5:50 PM,35.6,33.8,93,29.80,6.2,NE,12.7,-,N/A,,Mostly Cloudy,50,2012-11-25 16:50:00
6:20 PM,35.6,33.8,93,29.77,6.2,NE,11.5,-,N/A,,Mostly Cloudy,50,2012-11-25 17:20:00
6:50 PM,35.6,33.8,93,29.77,6.2,NE,11.5,-,N/A,,Mostly Cloudy,50,2012-11-25 17:50:00
7:00 PM,36,34,88,29.79,19,NE,13.4,,,,Partly Cloudy,40,2012-11-25 18:00:00
7:20 PM,35.6,33.8,93,29.77,6.2,NE,13.8,-,N/A,,Mostly Cloudy,50,2012-11-25 18:20:00
7:50 PM,35.6,33.8,93,29.74,6.2,NE,13.8,-,N/A,,Mostly Cloudy,50,2012-11-25 18:50:00
8:20 PM,35.6,33.8,93,29.74,6.2,ENE,13.8,25.3,N/A,,Mostly Cloudy,60,2012-11-25 19:20:00
8:50 PM,35.6,33.8,93,29.74,6.2,ENE,17.3,-,N/A,,Mostly Cloudy,60,2012-11-25 19:50:00
9:20 PM,35.6,33.8,93,29.71,6.2,ENE,17.3,-,N/A,,Mostly Cloudy,60,2012-11-25 20:20:00
9:50 PM,35.6,33.8,93,29.71,6.2,ENE,16.1,-,N/A,,Mostly Cloudy,60,2012-11-25 20:50:00
10:20 PM,35.6,33.8,93,29.71,6.2,NE,17.3,-,N/A,,Mostly Cloudy,50,2012-11-25 21:20:00
10:50 PM,35.6,33.8,93,29.71,6.2,NE,13.8,-,N/A,,Overcast,50,2012-11-25 21:50:00
11:20 PM,35.6,33.8,93,29.68,6.2,NE,15.0,-,N/A,,Overcast,50,2012-11-25 22:20:00
11:50 PM,35.6,33.8,93,29.68,6.2,NE,15.0,-,N/A,,Overcast,50,2012-11-25 22:50:00